Find Starlink 11207

NORAD ID: 60933 Int'l Des: 2024-155 Owner: SPXS Country: US Constellation: starlink operational
別名: STARLINK-11207 [DTC] celestrak
LEOCIRCULAR

現在のビュー

3D地球を読み込み中...

About Starlink 11207

Starlink 11207 (NORAD 60933) is a starlink constellation satellite (v2 mini d2c) launched Aug 31, 2024 by SPXS of US. It operates in LEO, CIRCULAR orbit with a mass of 960.00 kg.

次回通過

Passes for default location (London). Set your location on the main map for personalized predictions.

高度履歴

Loading altitude history...

軌道要素

1 60933U 24155K 26237.97164937 .00001484 00000-0 17097-4 0 9999
2 60933 53.1595 226.4855 0000723 117.5612 242.5480 15.69709964114993
Epoch: Aug 25, 2026 • Age: 11 hours

現在のステータス

高度 360.8 km
遠地点 / 近地点 N/A
速度 7.69 km/s
衛星直下点 0.67°N, 99.82°E
打ち上げ日 Aug 31, 2024
運用期間 1.9 years
タイプ internet

技術仕様

分類 Payload
質量 960.00 kg
乾燥質量 910.00 kg
総質量 960.00 kg
長さ 0.30 m
直径 4.10 m
スパン 29.00 m
形状 Box + pan
製造者 SPXS
バスタイプ Starlink V2MD
フェーズステータス In Orbit
所有者/国 SPXS/US

Most Searched